"Pseudo-MPEC" for C9H68T2

Created 2023 Sep 24 12:22:12 UT using Find_Orb

Click here for an explanation of pseudo-MPECs

 
 Astrometry: 
     C9H68T2  C2023 09 07'=_OwLcok2u6u=/ZhBLPQ(2=/,j4)qR^0[[\D*'V%+B'f1#8;TtAF52
     C9H68T2  C2023 09 07f8PL\?VSq:=RuyP%`^xF'Yfl\Xa6R(#D3)R_3#yP/N)_SdElbEsvF52
     C9H68T2  C2023 09 071?XioBbL@OUG[oZ^nemCn,PX,BuQoqch),nRN1XoAstrometry`4F52
     C9H68T2*1C2023 09 18.26817400 07 09.973+11 57 55.62   ~9I87 20.99GVNEOCPG96
     C9H68T2 1C2023 09 18.27338600 07 09.671+11 57 48.10   ~9I87 20.66GVNEOCPG96
     C9H68T2 1C2023 09 18.27861600 07 09.419+11 57 40.68   ~9I87 21.38GVNEOCPG96
     C9H68T2 1C2023 09 18.28383400 07 09.019+11 57 34.45   ~9I87x20.29GVNEOCPG96
     C9H68T2 1C2023 09 18.30869300 07 07.892+11 56 57.73   ~9I8q 20.33GVNEOCPG96
     C9H68T2 1C2023 09 18.31132800 07 07.720+11 56 54.02   ~9I8q 21.36GVNEOCPG96
     C9H68T2 1C2023 09 18.31404700 07 07.572+11 56 49.81   ~9I8q 21.02GVNEOCPG96
     C9H68T2 1C2023 09 18.31668600 07 07.432+11 56 46.28   ~9I8q 20.89GVNEOCPG96
     C9H68T2 KC2023 09 24pv]*ZQo(N4YPtU%L%vimZu2$'redacted;kclickMgYhereCcMxGH21
     C9H68T2 KC2023 09 24wZP;HcECKow!^k[Yan7h9d/r-Mh5Kif_?[-(P!QExS]Chq*6.LOsH21
     C9H68T2 KC2023 09 24\!Z/io4Y5sRp5wW6NVh[n2Jep`sCjFYk'B5PVHffor)\c5Yt%bQnH21
     C9H68T2 KC2023 09 24wE!0Pb]s,*,weN2;*Z[g5Q$QK*mVxexplanationk!$leT.#(:a4H21

Station data:
(F52) Pan-STARRS 2, Haleakala  (N20.707382 W156.255910)  US/Hawaii.
   Observers J. Bulger, T. Dukes, T. Lowe, A. Schultz, M. Willman. Measurers
   K. Chambers, S. Chastel, T. de Boer, L. Denneau, J. Fairlamb, H.
   Flewelling, M. Huber, C.-C. Lin, E. Magnier, Y. Ramanjooloo, R. Wainscoat,
   R. Weryk. 1.8-m Ritchey-Chrétien + CCD.
(G96) Mt. Lemmon Survey  (N32.442751 W110.788720)  US/Arizona.  Observer E.
   J. Christensen. 1.5-m reflector + 10K CCD.
(H21) Astronomical Research Observatory, Westfield  (N39.483054 W87.968270)
   US/Illinois.  Observer R. Holmes. Measurers S. Foglia, L. Buzzi, T.
   Linder, R. Holmes. 0.76-m f/3.0 astrograph + CCD0.81-m f/4.0 astrograph +
   CCD0.61-m f/4.5 astrograph + CCD0.40-m f/5.32 astrograph + CCD.

Orbital elements:  C9H68T2
   Perihelion 2024 Apr 17.76447 +/- 3.8 TT = 18:20:50 (JD 2460418.26447)
Epoch 2023 Sep 24.0 TT = JDT 2460211.5   Earth MOID: 0.8283      AutoNEOCP
M 279.25469833 +/- 0.7              (J2000 ecliptic)
n   0.39051826 +/- 0.00345          Peri.  254.73139 +/- 1.5
a   1.85371009 +/- 0.0111           Node   191.84345 +/- 0.11
e   0.0384508 +/- 0.00597           Incl.   22.23018 +/- 0.42
P   2.52/921.83d           H 19.62  G  0.15   U  8.9
q 1.78243342 +/- 0.000634    Q 1.92498677 +/- 0.0228
14 of 15 observations 2023 Sept. 7-24; mean residual 0".19
Residuals in arcseconds: 
230907 F52  .18-  .11-    230918 G96  .08-  .16-    230918 G96  .23-  .11+    
230907 F52  .09+  .04-    230918 G96( 2.0-  1.1+)   230924 H21  .17-  .23-    
230907 F52  .08+  .16+    230918 G96  .42+  .07+    230924 H21  .21-  .13+    
230918 G96  .12+  .19-    230918 G96  .09-  .15+    230924 H21  .08-  .01-    
230918 G96  .35-  .24-    230918 G96  .19-  .15-    230924 H21  .11+  .37-    

Ephemerides (geocentric):
Date (UTC) HH   RA             Dec           delta  r     elong  mag " sig PA
---- --------  ------------   ------------  ------ ------ -----  --- --------
2023 09 24 12  00 02 01.310   +09 21 57.85  .84714 1.8447 171.0 21.0 .364   1
2023 09 24 13  00 01 59.223   +09 20 52.97  .84709 1.8447 171.0 21.0 .381   3
2023 09 24 14  00 01 57.136   +09 19 48.06  .84704 1.8447 171.0 21.0 .398   4
2023 09 24 15  00 01 55.049   +09 18 43.12  .84699 1.8446 171.1 21.0 .416   5
2023 09 24 16  00 01 52.963   +09 17 38.16  .84694 1.8446 171.1 21.0 .434   7
2023 09 24 17  00 01 50.876   +09 16 33.18  .84690 1.8446 171.1 21.0 .453   8
2023 09 24 18  00 01 48.790   +09 15 28.17  .84685 1.8446 171.2 21.0 .472   9
2023 09 24 19  00 01 46.703   +09 14 23.14  .84680 1.8446 171.2 21.0 .492  10
2023 09 24 20  00 01 44.617   +09 13 18.09  .84676 1.8445 171.2 21.0 .512  11
2023 09 24 21  00 01 42.531   +09 12 13.01  .84671 1.8445 171.3 21.0 .532  12
2023 09 24 22  00 01 40.444   +09 11 07.91  .84667 1.8445 171.3 21.0 .553  13
2023 09 24 23  00 01 38.359   +09 10 02.79  .84662 1.8445 171.3 21.0 .574  13
2023 09 25 00  00 01 36.273   +09 08 57.65  .84658 1.8445 171.3 21.0 .596  14
2023 09 25 01  00 01 34.187   +09 07 52.48  .84653 1.8444 171.4 21.0 .618  15
2023 09 25 02  00 01 32.101   +09 06 47.29  .84649 1.8444 171.4 21.0 .641  16
2023 09 25 03  00 01 30.016   +09 05 42.07  .84645 1.8444 171.4 21.0 .664  16
2023 09 25 04  00 01 27.931   +09 04 36.84  .84640 1.8444 171.5 21.0 .688  17
2023 09 25 05  00 01 25.846   +09 03 31.58  .84636 1.8444 171.5 21.0 .711  17
2023 09 25 06  00 01 23.761   +09 02 26.30  .84632 1.8443 171.5 21.0 .736  18
2023 09 25 07  00 01 21.676   +09 01 21.00  .84628 1.8443 171.5 21.0 .760  19
2023 09 25 08  00 01 19.591   +09 00 15.67  .84624 1.8443 171.6 21.0 .785  19
2023 09 25 09  00 01 17.507   +08 59 10.32  .84620 1.8443 171.6 21.0 .811  20
2023 09 25 10  00 01 15.423   +08 58 04.96  .84616 1.8443 171.6 21.0 .837  20
2023 09 25 11  00 01 13.339   +08 56 59.57  .84612 1.8442 171.7 21.0 .863  20
2023 09 25 12  00 01 11.255   +08 55 54.16  .84608 1.8442 171.7 21.0 .890  21
2023 09 25 13  00 01 09.172   +08 54 48.72  .84604 1.8442 171.7 21.0 .917  21
2023 09 25 14  00 01 07.089   +08 53 43.27  .84600 1.8442 171.7 21.0 .944  22
2023 09 25 15  00 01 05.006   +08 52 37.80  .84596 1.8442 171.8 21.0 .972  22
2023 09 25 16  00 01 02.923   +08 51 32.30  .84593 1.8441 171.8 21.0 1.00  22
2023 09 25 17  00 01 00.840   +08 50 26.79  .84589 1.8441 171.8 21.0 1.03  23
2023 09 25 18  00 00 58.758   +08 49 21.25  .84585 1.8441 171.8 21.0 1.06  23
2023 09 25 19  00 00 56.676   +08 48 15.69  .84582 1.8441 171.9 21.0 1.09  23
2023 09 25 20  00 00 54.594   +08 47 10.12  .84578 1.8441 171.9 21.0 1.12  24
2023 09 25 21  00 00 52.513   +08 46 04.52  .84575 1.8440 171.9 21.0 1.15  24
2023 09 25 22  00 00 50.432   +08 44 58.90  .84571 1.8440 171.9 21.0 1.18  24
2023 09 25 23  00 00 48.351   +08 43 53.27  .84568 1.8440 172.0 21.0 1.21  25
2023 09 26 00  00 00 46.270   +08 42 47.61  .84565 1.8440 172.0 21.0 1.24  25
2023 09 26 01  00 00 44.190   +08 41 41.93  .84561 1.8440 172.0 21.0 1.27  25
2023 09 26 02  00 00 42.110   +08 40 36.24  .84558 1.8439 172.0 21.0 1.30  25
2023 09 26 03  00 00 40.030   +08 39 30.52  .84555 1.8439 172.0 21.0 1.34  26
2023 09 26 04  00 00 37.951   +08 38 24.79  .84552 1.8439 172.1 21.0 1.37  26
2023 09 26 05  00 00 35.872   +08 37 19.03  .84548 1.8439 172.1 21.0 1.40  26
2023 09 26 06  00 00 33.794   +08 36 13.26  .84545 1.8439 172.1 21.0 1.44  26
2023 09 26 07  00 00 31.715   +08 35 07.47  .84542 1.8438 172.1 21.0 1.47  27
2023 09 26 08  00 00 29.638   +08 34 01.66  .84539 1.8438 172.1 21.0 1.51  27
2023 09 26 09  00 00 27.560   +08 32 55.83  .84536 1.8438 172.2 21.0 1.54  27
2023 09 26 10  00 00 25.483   +08 31 49.98  .84534 1.8438 172.2 21.0 1.58  27
2023 09 26 11  00 00 23.406   +08 30 44.11  .84531 1.8438 172.2 21.0 1.61  27